Location: Ferchesar
(52.6477°N, 12.4298°E)
Time: 06:17:33
(UTC+01:00)

Vanguard 2 Rocket - Pass Details

Date: 06 December 2021
Orbit: 553 x 3325 km, 32.9° (Epoch: 25 January)

Event Time Altitude Azimuth Distance (km) Brightness Sun altitude
Rises 18:56:26 0° 227° (SW) 3,434 10.6 -26.0°
Reaches altitude 10° 18:59:29 10° 207° (SSW) 2,820 9.7 -26.4°
Maximum altitude 19:03:55 18° 166° (SSE) 2,766 9.2 -27.1°
Enters shadow 19:05:51 17° 151° (SSE) 3,058 9.3 -27.4°
Drops below altitude 10° 19:09:54 10° 129° (SE) 4,010 - -28.0°
Sets 19:15:33 0° 115° (ESE) 5,612 - -28.9°
